| time (UTC) | temp C | wind direction | speed KPH | gust KPH | rain 1hr cm | rain 24hr cm | rain mn cm | humidity % | barometer mb |
| 20260506182802 | 29 | 0 | 0.0 | 0.0 | 0.00 | 0.00 | 0.00 | 33 | 1016.6 |
| 20260506181304 | 30 | 0 | 0.0 | 0.0 | 0.00 | 0.00 | 0.00 | 32 | 1016.5 |
| 20260506175805 | 31 | 0 | 0.0 | 0.0 | 0.00 | 0.00 | 0.00 | 30 | 1016.5 |
| 20260506174305 | 30 | 0 | 0.0 | 0.0 | 0.00 | 0.00 | 0.00 | 30 | 1016.3 |
| 20260506172804 | 30 | 0 | 0.0 | 0.0 | 0.00 | 0.00 | 0.00 | 28 | 1016.2 |
| 20260506171304 | 32 | 0 | 0.0 | 0.0 | 0.00 | 0.00 | 0.00 | 29 | 1016.3 |
| 20260506165804 | 31 | 0 | 0.0 | 0.0 | 0.00 | 0.00 | 0.00 | 30 | 1016.2 |
| 20260506164304 | 29 | 0 | 0.0 | 0.0 | 0.00 | 0.00 | 0.00 | 31 | 1016.1 |
| 20260506162805 | 27 | 0 | 0.0 | 0.0 | 0.00 | 0.00 | 0.00 | 34 | 1016.1 |
| 20260506161303 | 29 | 0 | 0.0 | 0.0 | 0.00 | 0.00 | 0.00 | 32 | 1016.1 |
| 20260506155804 | 27 | 0 | 0.0 | 0.0 | 0.00 | 0.00 | 0.00 | 35 | 1016.0 |
| 20260506154304 | 28 | 0 | 0.0 | 0.0 | 0.00 | 0.00 | 0.00 | 33 | 1016.0 |
| 20260506152805 | 30 | 0 | 0.0 | 0.0 | 0.00 | 0.00 | 0.00 | 30 | 1016.0 |
| 20260506151305 | 31 | 0 | 0.0 | 0.0 | 0.00 | 0.00 | 0.00 | 30 | 1016.2 |
| 20260506145804 | 31 | 0 | 0.0 | 0.0 | 0.00 | 0.00 | 0.00 | 29 | 1016.3 |
| 20260506144304 | 30 | 0 | 0.0 | 0.0 | 0.00 | 0.00 | 0.00 | 31 | 1016.3 |
| 20260506142804 | 32 | 0 | 0.0 | 0.0 | 0.00 | 0.00 | 0.00 | 27 | 1016.3 |
| 20260506141304 | 30 | 0 | 0.0 | 0.0 | 0.00 | 0.00 | 0.00 | 29 | 1016.4 |
| 20260506135802 | 31 | 0 | 0.0 | 0.0 | 0.00 | 0.00 | 0.00 | 28 | 1016.4 |
| 20260506134303 | 29 | 0 | 0.0 | 0.0 | 0.00 | 0.00 | 0.00 | 30 | 1016.4 |
| 20260506132804 | 28 | 0 | 0.0 | 0.0 | 0.00 | 0.00 | 0.00 | 29 | 1016.4 |
| 20260506131303 | 31 | 0 | 0.0 | 0.0 | 0.00 | 0.00 | 0.00 | 30 | 1016.4 |
| 20260506125804 | 33 | 0 | 0.0 | 0.0 | 0.00 | 0.00 | 0.00 | 27 | 1016.5 |
| 20260506124305 | 32 | 0 | 0.0 | 0.0 | 0.00 | 0.00 | 0.00 | 28 | 1016.6 |
| 20260506122805 | 32 | 0 | 0.0 | 0.0 | 0.00 | 0.00 | 0.00 | 28 | 1016.7 |
| 20260506121304 | 30 | 0 | 0.0 | 0.0 | 0.00 | 0.00 | 0.00 | 30 | 1016.8 |
| 20260506115804 | 31 | 0 | 0.0 | 0.0 | 0.00 | 0.00 | 0.00 | 28 | 1016.8 |
| 20260506114304 | 29 | 0 | 0.0 | 0.0 | 0.00 | 0.00 | 0.00 | 29 | 1016.9 |
| 20260506112805 | 30 | 0 | 0.0 | 0.0 | 0.00 | 0.00 | 0.00 | 29 | 1017.1 |
| 20260506111304 | 29 | 0 | 0.0 | 0.0 | 0.00 | 0.00 | 0.00 | 30 | 1017.0 |
| 20260506105804 | 29 | 0 | 0.0 | 0.0 | 0.00 | 0.00 | 0.00 | 30 | 1017.1 |
| 20260506104305 | 28 | 0 | 0.0 | 0.0 | 0.00 | 0.00 | 0.00 | 34 | 1017.1 |
| 20260506102804 | 28 | 0 | 0.0 | 0.0 | 0.00 | 0.00 | 0.00 | 32 | 1017.1 |
| 20260506101305 | 28 | 0 | 0.0 | 0.0 | 0.00 | 0.00 | 0.00 | 33 | 1017.1 |
| 20260506095803 | 29 | 0 | 0.0 | 0.0 | 0.00 | 0.00 | 0.00 | 32 | 1017.2 |
| 20260506094303 | 28 | 0 | 0.0 | 0.0 | 0.00 | 0.00 | 0.00 | 32 | 1017.2 |
| 20260506092804 | 29 | 0 | 0.0 | 0.0 | 0.00 | 0.00 | 0.00 | 30 | 1017.2 |
| 20260506091304 | 28 | 0 | 0.0 | 0.0 | 0.00 | 0.00 | 0.00 | 30 | 1017.3 |
| 20260506085804 | 28 | 0 | 0.0 | 0.0 | 0.00 | 0.00 | 0.00 | 31 | 1017.4 |
| 20260506084305 | 30 | 0 | 0.0 | 0.0 | 0.00 | 0.00 | 0.00 | 28 | 1017.4 |
| 20260506082804 | 30 | 0 | 0.0 | 0.0 | 0.00 | 0.00 | 0.00 | 28 | 1017.3 |
| 20260506081303 | 30 | 0 | 0.0 | 0.0 | 0.00 | 0.00 | 0.00 | 28 | 1017.2 |
| 20260506072804 | 31 | 0 | 0.0 | 0.0 | 0.00 | 0.00 | 0.00 | 29 | 1017.2 |
| 20260506071304 | 28 | 0 | 0.0 | 0.0 | 0.00 | 0.00 | 0.00 | 32 | 1017.1 |
| 20260506061304 | 22 | 0 | 0.0 | 0.0 | 0.00 | 0.00 | 0.00 | 39 | 1017.2 |
| 20260506051304 | 24 | 0 | 0.0 | 0.0 | 0.00 | 0.00 | 0.00 | 35 | 1017.2 |
| 20260506044305 | 23 | 0 | 0.0 | 0.0 | 0.00 | 0.00 | 0.00 | 35 | 1017.0 |
| 20260506042806 | 24 | 0 | 0.0 | 0.0 | 0.00 | 0.00 | 0.00 | 34 | 1017.0 |
| 20260506041305 | 25 | 0 | 0.0 | 0.0 | 0.00 | 0.00 | 0.00 | 34 | 1017.1 |
| 20260506035805 | 23 | 0 | 0.0 | 0.0 | 0.00 | 0.00 | 0.00 | 35 | 1016.9 |
| 20260506034304 | 23 | 0 | 0.0 | 0.0 | 0.00 | 0.00 | 0.00 | 35 | 1016.8 |
| 20260506032805 | 25 | 0 | 0.0 | 0.0 | 0.00 | 0.00 | 0.00 | 34 | 1016.7 |
| 20260506031304 | 25 | 0 | 0.0 | 0.0 | 0.00 | 0.00 | 0.00 | 34 | 1016.6 |
| 20260506025804 | 25 | 0 | 0.0 | 0.0 | 0.00 | 0.00 | 0.00 | 34 | 1016.6 |
| 20260506024304 | 23 | 0 | 0.0 | 0.0 | 0.00 | 0.00 | 0.00 | 35 | 1016.6 |
| 20260506022805 | 24 | 0 | 0.0 | 0.0 | 0.00 | 0.00 | 0.00 | 36 | 1016.6 |
| 20260506021304 | 25 | 0 | 0.0 | 0.0 | 0.00 | 0.00 | 0.00 | 34 | 1016.4 |
| 20260506015805 | 27 | 0 | 0.0 | 0.0 | 0.00 | 0.00 | 0.00 | 31 | 1016.5 |
| 20260506014303 | 26 | 0 | 0.0 | 0.0 | 0.00 | 0.00 | 0.00 | 32 | 1016.6 |
| 20260506012804 | 26 | 0 | 0.0 | 0.0 | 0.00 | 0.00 | 0.00 | 33 | 1016.6 |
| 20260506011305 | 25 | 0 | 0.0 | 0.0 | 0.00 | 0.00 | 0.00 | 35 | 1016.4 |
| 20260506005804 | 26 | 0 | 0.0 | 0.0 | 0.00 | 0.00 | 0.00 | 34 | 1016.5 |
| 20260506004305 | 25 | 0 | 0.0 | 0.0 | 0.00 | 0.00 | 0.00 | 35 | 1016.4 |
| 20260506002804 | 26 | 0 | 0.0 | 0.0 | 0.00 | 0.00 | 0.00 | 33 | 1016.3 |
| 20260506001305 | 26 | 0 | 0.0 | 0.0 | 0.00 | 0.00 | 0.00 | 33 | 1016.5 |
| 20260505235805 | 26 | 0 | 0.0 | 0.0 | 0.00 | 0.00 | 0.00 | 32 | 1016.5 |
| 20260505234303 | 26 | 0 | 0.0 | 0.0 | 0.00 | 0.00 | 0.00 | 32 | 1016.4 |
| 20260505232805 | 24 | 0 | 0.0 | 0.0 | 0.00 | 0.00 | 0.00 | 34 | 1016.2 |
| 20260505231307 | 26 | 0 | 0.0 | 0.0 | 0.00 | 0.00 | 0.00 | 33 | 1016.2 |
| 20260505225804 | 27 | 0 | 0.0 | 0.0 | 0.00 | 0.00 | 0.00 | 30 | 1016.3 |
| 20260505224304 | 25 | 0 | 0.0 | 0.0 | 0.00 | 0.00 | 0.00 | 32 | 1016.5 |
| 20260505222804 | 27 | 0 | 0.0 | 0.0 | 0.00 | 0.00 | 0.00 | 31 | 1016.6 |
| 20260505221303 | 27 | 0 | 0.0 | 0.0 | 0.00 | 0.00 | 0.00 | 32 | 1016.6 |
| 20260505215803 | 27 | 0 | 0.0 | 0.0 | 0.00 | 0.00 | 0.00 | 32 | 1016.7 |
| 20260505214303 | 28 | 0 | 0.0 | 0.0 | 0.00 | 0.00 | 0.00 | 32 | 1016.7 |
| 20260505212805 | 28 | 0 | 0.0 | 0.0 | 0.00 | 0.00 | 0.00 | 31 | 1016.7 |
| 20260505211304 | 28 | 0 | 0.0 | 0.0 | 0.00 | 0.00 | 0.00 | 32 | 1016.8 |
| 20260505205804 | 29 | 0 | 0.0 | 0.0 | 0.00 | 0.00 | 0.00 | 32 | 1016.7 |
| 20260505204304 | 28 | 0 | 0.0 | 0.0 | 0.00 | 0.00 | 0.00 | 33 | 1016.7 |
| 20260505202804 | 28 | 0 | 0.0 | 0.0 | 0.00 | 0.00 | 0.00 | 33 | 1016.7 |
| 20260505201305 | 25 | 0 | 0.0 | 0.0 | 0.00 | 0.00 | 0.00 | 38 | 1016.6 |
| 20260505195804 | 26 | 0 | 0.0 | 0.0 | 0.00 | 0.00 | 0.00 | 37 | 1016.6 |
| 20260505194305 | 25 | 0 | 0.0 | 0.0 | 0.00 | 0.00 | 0.00 | 37 | 1016.6 |
| 20260505192804 | 25 | 0 | 0.0 | 0.0 | 0.00 | 0.00 | 0.00 | 38 | 1016.5 |
| 20260505191305 | 26 | 0 | 0.0 | 0.0 | 0.00 | 0.00 | 0.00 | 36 | 1016.4 |
| 20260505185804 | 25 | 0 | 0.0 | 0.0 | 0.00 | 0.00 | 0.00 | 36 | 1016.3 |
| 20260505184304 | 27 | 0 | 0.0 | 0.0 | 0.00 | 0.00 | 0.00 | 34 | 1016.3 |